Location: Pasadena, ca
(34.1243°N, 118.1037°W)
Time: 02:09:18
(UTC-07:00)

Vanguard 1 Rocket - All Passes

Search period start: 16 July 2018 00:00
Search period end: 26 July 2018 00:00
Orbit: 652 x 4225 km, 34.3° (Epoch: 15 July)

Date Brightness Start Highest point End Pass type
(mag) Time Alt. Az. Time Alt. Az. Time Alt. Az.
16 Jul - 05:50:19 10° S 06:06:55 22° SE 06:19:48 10° E daylight
16 Jul - 08:15:33 10° SW 08:37:19 51° SSE 08:49:40 10° E daylight
16 Jul - 10:48:12 10° WSW 11:06:09 82° SSE 11:14:53 10° E daylight
16 Jul - 13:21:44 10° W 13:33:06 87° S 13:39:02 10° E daylight
16 Jul - 15:52:06 10° W 15:57:52 31° SW 16:01:59 10° SSE daylight
17 Jul - 04:43:38 10° SSE 04:52:51 13° SE 05:01:13 10° ESE visible
17 Jul - 07:01:55 10° SSW 07:23:39 40° SSE 07:37:45 10° E daylight
17 Jul - 09:32:26 10° WSW 09:53:29 72° SSE 10:04:10 10° E daylight
17 Jul - 12:06:44 10° W 12:21:29 89° N 12:28:42 10° E daylight
17 Jul - 14:38:46 10° W 14:47:21 56° SSW 14:52:23 10° SE daylight
18 Jul - 05:49:54 10° SSW 06:09:41 29° SE 06:24:33 10° E daylight
18 Jul - 08:17:11 10° SW 08:40:14 60° SSE 08:53:04 10° E daylight
18 Jul - 10:50:54 10° WSW 11:09:18 88° S 11:18:12 10° E daylight
18 Jul - 13:24:43 10° W 13:36:19 79° SSW 13:42:21 10° ESE daylight
18 Jul - 15:55:38 10° W 16:00:43 22° SW 16:04:30 10° SSE daylight
19 Jul - 04:40:25 10° S 04:55:37 19° SE 05:08:47 10° E visible
19 Jul - 07:03:00 10° SW 07:26:25 48° SSE 07:41:22 10° E daylight
19 Jul - 09:34:48 10° WSW 09:56:30 79° SSE 10:07:28 10° E daylight
19 Jul - 12:09:40 10° W 12:24:42 90° SSW 12:32:03 10° E daylight
19 Jul - 14:41:51 10° W 14:50:21 44° SSW 14:55:23 10° SE daylight
20 Jul - 05:50:16 10° SSW 06:12:19 37° SE 06:28:38 10° E daylight
20 Jul - 08:19:08 10° SW 08:43:05 69° SSE 08:56:24 10° ENE daylight
20 Jul - 10:53:42 10° W 11:12:27 90° N 11:21:32 10° E daylight
20 Jul - 13:27:39 10° W 13:39:27 70° SSW 13:45:35 10° ESE daylight
20 Jul - 15:59:37 10° W 16:03:26 15° SW 16:06:29 10° S daylight
21 Jul - 04:39:29 10° S 04:58:11 26° SE 05:14:07 10° E visible
21 Jul - 07:04:29 10° SW 07:29:08 57° SSE 07:44:46 10° ENE daylight
21 Jul - 09:37:21 10° WSW 09:59:32 85° S 10:10:46 10° E daylight
21 Jul - 12:12:32 10° W 12:27:53 86° S 12:35:23 10° ESE daylight
21 Jul - 14:45:02 10° W 14:53:11 34° SW 14:58:12 10° SSE daylight
22 Jul - 03:32:22 10° SSE 03:44:13 15° SE 03:55:34 10° ESE visible
22 Jul - 05:51:12 10° SSW 06:14:51 45° SE 06:32:19 10° E daylight
22 Jul - 08:21:20 10° WSW 08:45:57 76° SSE 08:59:39 10° E daylight
22 Jul - 10:56:32 10° W 11:15:36 89° N 11:24:52 10° E daylight
22 Jul - 13:30:35 10° WNW 13:42:28 59° SSW 13:48:43 10° SE daylight
22 Jul - 16:05:46 10° SW 16:06:01 10° SW 16:06:16 10° SW daylight
23 Jul - 04:39:37 10° SSW 05:00:34 33° SE 05:18:30 10° E visible
23 Jul - 07:06:17 10° SW 07:31:48 65° SSE 07:48:03 10° ENE daylight
23 Jul - 09:40:01 10° W 10:02:35 89° S 10:14:03 10° E daylight
23 Jul - 12:15:24 10° W 12:31:01 79° SSW 12:38:39 10° ESE daylight
23 Jul - 14:48:25 10° W 14:55:52 26° SW 15:00:44 10° SSE daylight
24 Jul - 03:30:25 10° S 03:46:35 21° SE 04:02:07 10° E visible
24 Jul - 05:52:35 10° SW 06:17:19 53° SSE 06:35:44 10° ENE daylight
24 Jul - 08:23:45 10° WSW 08:48:50 82° SSE 09:02:53 10° E daylight
24 Jul - 10:59:22 10° W 11:18:46 89° S 11:28:11 10° E daylight
24 Jul - 13:33:32 10° WNW 13:45:21 48° SSW 13:51:41 10° SE daylight
25 Jul - 02:29:42 10° SE 02:32:59 10° SE 02:36:16 10° ESE visible
25 Jul - 04:40:25 10° SSW 05:02:51 40° SE 05:22:19 10° E visible
25 Jul - 07:08:23 10° SW 07:34:29 72° SSE 07:51:16 10° ENE daylight
25 Jul - 09:42:47 10° W 10:05:40 89° N 10:17:20 10° E daylight
25 Jul - 12:18:13 10° WNW 12:34:03 71° SSW 12:41:50 10° ESE daylight
25 Jul - 14:52:06 10° W 14:58:25 19° SW 15:02:52 10° S daylight
